Location: Chaffaud Lagremuse
(44.0369°N, 6.1499°E)
Time: 01:25:04
(UTC+00:00)

Daily predictions for brighter satellites

Satellite Brightness Start Highest point End
(mag) Time Altitude Azimuth Time Altitude Azimuth Time Altitude Azimuth
Cosmos 1464 Rocket 3.8 00:08:47 84° SE 00:08:54 85° E 00:15:10 10° N
Cosmos 2333 4.5 00:05:17 10° NNW 00:10:14 60° WNW 00:10:14 60° WNW
Cosmos 2219 Rocket 2.2 00:05:53 10° NNW 00:11:13 78° N 00:11:13 78° N
Lacrosse 4 Rocket 2.8 00:13:01 37° N 00:13:01 37° N 00:15:50 10° NNE
Cosmos 1354 Rocket 4.2 00:16:38 68° NE 00:16:38 68° NE 00:21:19 10° NNE
Cosmos 968 Rocket 4.0 00:19:13 52° NW 00:19:13 52° NW 00:23:44 10° NNE
Cosmos 2322 Rocket 4.3 00:15:46 10° WNW 00:17:43 15° W 00:17:43 15° W
SL-4 R/B 4.5 00:22:18 14° NE 00:22:18 14° NE 00:23:06 10° ENE
COSMOS 2428 2.8 00:23:59 10° NNW 00:29:11 71° WNW 00:29:11 71° WNW
SL-16 R/B 3.5 00:28:36 30° ESE 00:31:06 43° ENE 00:36:57 10° N
Nadezhda 4 Rocket 3.8 00:28:33 10° N 00:34:54 90° W 00:35:18 80° S
Cosmos 2360 Rocket 3.9 00:30:44 10° NW 00:33:24 20° WNW 00:33:24 20° WNW
Cosmos 2034 Rocket 3.8 00:35:41 80° SW 00:36:03 85° W 00:42:22 10° N
CZ-2D R/B 3.2 00:32:42 10° NNE 00:37:43 35° E 00:38:05 35° ESE
Okean 2 Rocket 3.8 00:41:46 53° NNE 00:41:46 53° NNE 00:45:14 10° N
GEOS 3 Rocket 3.6 00:37:23 10° NE 00:42:46 88° NNE 00:42:46 88° NNE
Cosmos 2297 Rocket 2.8 00:45:36 44° ESE 00:45:37 44° ESE 00:50:58 10° NE
Cosmos 2219 3.5 00:45:50 52° ESE 00:45:50 52° ESE 00:51:14 10° NE
ADEOS II 4.1 00:42:40 10° NE 00:45:59 17° E 00:47:28 15° ESE
Cosmos 1092 Rocket 4.0 00:40:45 10° N 00:47:00 71° E 00:48:01 60° SE
Cosmos 1777 Rocket 4.2 00:49:00 62° E 00:49:00 62° E 00:54:00 10° NNE
Cosmos 1980 3.9 00:43:07 10° NNW 00:48:47 65° ENE 00:49:51 54° ESE
Cosmos 2333 Rocket 3.0 00:43:55 10° NW 00:48:12 39° WNW 00:48:12 39° WNW
Helios 1B rocket 3.7 00:46:04 10° N 00:48:49 35° NNW 00:48:49 35° NNW
UNK 4.4 00:52:22 47° E 00:52:40 48° ENE 00:57:10 10° N
Cosmos 44 Rocket 3.7 00:51:10 10° NW 00:55:08 57° NW 00:55:08 57° NW
Cosmos 1300 Rocket 4.2 00:57:53 50° NNW 00:57:53 50° NNW 01:01:10 10° N
Cosmos 2237 Rocket 2.3 00:53:11 10° NNW 00:58:51 72° ENE 00:59:51 58° ESE
DELTA 2 DEB (DPAF) 4.4 01:00:27 64° NNE 01:00:27 64° NNE 01:04:23 10° N
Okean 1 Rocket 4.0 01:01:02 41° E 01:01:02 41° E 01:04:47 10° NNE
Cosmos 2151 Rocket 4.0 01:12:29 55° NNW 01:12:29 55° NNW 01:16:10 10° N
ATLAS 3B CENTAUR R/B 4.4 01:13:43 31° SSE 01:13:43 31° SSE 01:19:23 10° ESE
Meteor 1-12 Rocket 4.4 01:11:28 60° WSW 01:12:02 63° WNW 01:18:00 10° N
Timation 2 Rocket 4.0 01:14:34 57° WSW 01:15:37 66° WNW 01:21:40 10° NNE
In-Cosmos 22 4.1 01:13:32 10° NNW 01:19:06 66° W 01:19:15 66° WSW
Meteor 1-15 Rocket 4.1 01:22:53 66° S 01:23:45 86° E 01:29:24 10° NNE
Cosmos 1805 3.9 01:24:26 54° NE 01:24:26 54° NE 01:27:41 10° NNE
SJ 16-02 2.4 01:25:10 36° ESE 01:25:24 36° ESE 01:29:28 10° NE
ERBS 4.1 01:24:50 10° NNW 01:27:49 30° NNE 01:30:46 10° E
DNEPR-1 R/B 4.4 01:22:07 10° NNW 01:27:55 62° NE 01:31:05 21° SE
Meteor 2-13 Rocket 4.5 01:27:21 10° NNW 01:33:19 58° W 01:34:11 53° SW
Cosmos 2227 Rocket 2.1 01:33:34 63° SSW 01:34:33 89° WNW 01:40:16 10° NNE
Cosmos 1538 Rocket 3.9 01:30:41 10° NNW 01:35:49 64° WSW 01:35:51 64° WSW
MOZ.5/SAFIR/RUBIN 5/SL-8 4.5 01:37:00 41° WNW 01:37:00 41° WNW 01:40:51 10° NNW
Resurs 1-4 Rocket 2.0 01:33:23 10° N 01:38:38 69° WNW 01:39:24 60° WSW
Cosmos 1674 3.6 01:37:12 10° NNW 01:39:47 41° NNW 01:39:47 41° NNW
Cosmos 1733 3.4 01:42:54 68° ENE 01:42:54 68° ENE 01:46:27 10° NNE
Cosmos 1892 Rocket 4.4 01:40:05 10° N 01:44:25 47° ENE 01:46:08 31° SE
Cosmos 2279 Rocket 3.9 01:44:46 47° S 01:46:42 86° W 01:52:56 10° N
Cosmos 1461 3.9 01:47:03 35° SE 01:47:28 36° ESE 01:51:36 10° NE
COBE Rocket 3.8 01:47:33 50° SSE 01:48:46 79° ENE 01:53:25 10° N
USA 215 3.2 01:42:29 10° NE 01:49:04 78° SE 01:51:29 42° SW
Cosmos 2026 Rocket 4.1 01:44:09 10° NNW 01:49:59 51° W 01:51:08 45° SW
Cosmos 1634 Rocket 4.3 01:50:26 42° WSW 01:51:56 50° WNW 01:58:00 10° N
Cosmos 2219 Rocket 4.3 01:51:57 10° WNW 01:52:54 12° WNW 01:52:54 12° WNW
SL-24 R/B 4.3 01:53:41 51° S 01:54:56 88° E 01:59:55 10° N
Cosmos 2082 3.7 01:53:29 48° S 01:55:07 78° ESE 02:00:45 10° NNE
Cosmos 1340 Rocket 4.4 01:54:19 24° SE 01:55:41 30° E 01:59:11 10° NNE
Cosmos 2344 4.4 01:46:52 10° NW 01:56:42 69° WSW 02:10:25 10° SSE
SL-4 R/B 2.5 01:58:02 17° NW 02:00:25 46° NNE 02:03:42 10° E
Cosmos 2112 Rocket 4.4 01:56:09 10° NNW 02:01:21 62° ENE 02:06:29 10° SSE
Cosmos 1726 4.4 02:04:07 13° SE 02:06:17 20° E 02:09:03 10° NE
Meteor 1-24 Rocket 3.5 02:00:57 10° NNW 02:06:28 85° W 02:08:55 33° S
CBERS-1 3.9 02:02:21 10° NNE 02:07:29 83° WNW 02:09:09 44° SSW
SL-16 R/B 2.1 02:01:46 10° NNW 02:07:30 88° WSW 02:12:33 13° SSE
Cosmos 1937 Rocket 4.3 02:06:56 26° SSE 02:09:34 46° ESE 02:14:38 10° NNE
Meteor 2-5 Rocket 3.7 02:04:35 10° NNW 02:10:09 60° W 02:11:59 40° SSW
H-2A R/B 4.4 02:10:29 10° ESE 02:13:39 22° ENE 02:16:49 10° NNE
Cosmos 1898 Rocket 3.6 02:11:41 35° S 02:13:51 69° ESE 02:19:03 10° NNE
SL-16 R/B 3.2 02:13:42 32° WSW 02:14:46 34° W 02:20:25 10° NNW
ARIANE 5 R/B 3.1 02:09:50 10° NNE 02:14:59 55° E 02:18:02 24° S
NPP 4.3 02:11:44 10° N 02:16:45 40° WNW 02:18:22 32° WSW
CZ-2D R/B 3.1 02:12:48 10° N 02:17:43 34° WNW 02:19:24 28° W
IDEFIX/ARIANE 42P 3.7 02:12:58 10° NNE 02:17:48 38° E 02:21:55 14° SSE
Cosmos 1680 Rocket 3.4 02:13:55 10° NNW 02:19:10 81° WSW 02:22:58 19° SSE
NOSS 3-1 (C) 3.5 02:17:24 33° S 02:19:47 62° ESE 02:25:54 10° NE
USA 267 3.6 02:14:19 10° ESE 02:20:46 66° NNE 02:27:15 10° NW
Cosmos 1544 Rocket 3.9 02:20:01 30° SSE 02:22:06 65° E 02:26:33 10° NNE
Cosmos 990 Rocket 3.9 02:23:20 36° SSW 02:25:31 87° WNW 02:30:45 10° NNE
ADEOS II 2.1 02:20:56 10° N 02:26:09 66° WNW 02:28:23 34° SW
Cosmos 1607 3.9 02:19:47 10° NW 02:26:13 72° WSW 02:32:39 10° SSE
Cosmos 1766 4.4 02:26:32 28° WNW 02:26:37 28° WNW 02:30:01 10° NNW
Cosmos 2263 Rocket 3.4 02:23:53 14° SSE 02:28:00 36° ESE 02:33:01 10° NE
Meteor 1-22 Rocket 4.3 02:27:12 35° SW 02:29:09 54° WNW 02:34:22 10° N
Cosmos 2297 Rocket 3.3 02:27:24 23° W 02:29:49 31° NW 02:34:48 10° N
IRS-1D 3.8 02:25:04 10° N 02:29:57 51° WNW 02:31:54 33° SW
Okean 1-7 Rocket 3.5 02:28:37 10° NNW 02:33:01 69° W 02:35:04 30° S
ERS-1 4.4 02:29:05 10° NNE 02:34:05 83° ESE 02:36:59 25° S
IRS-1C 4.1 02:30:26 10° N 02:35:47 76° WNW 02:38:42 28° SSW
Meteor 1-28 Rocket 3.1 02:36:22 30° S 02:38:09 77° WSW 02:41:58 10° NNW
Cosmos 1626 3.0 02:35:40 10° NNW 02:38:56 31° W 02:38:56 31° W
Cosmos 2266 Rocket 4.0 02:33:42 10° NNW 02:40:01 67° W 02:45:02 16° S
Cosmos 1655 Rocket 4.2 02:34:48 10° NNW 02:40:49 49° W 02:44:28 23° SSW
Cosmos 2237 Rocket 3.8 02:38:44 10° WNW 02:41:36 17° W 02:41:36 17° W
Cosmos 1602 Rocket 4.4 02:38:07 10° N 02:42:23 50° ENE 02:46:36 10° SSE
Cosmos 1470 2.8 02:41:43 37° SW 02:43:03 59° W 02:47:00 10° N
CZ-4B R/B 4.3 02:38:53 10° N 02:43:07 32° WNW 02:44:50 25° WSW
Cosmos 1603 4.5 02:41:20 10° NNW 02:47:01 55° ENE 02:52:35 10° SE
SL-08 R/B 3.4 02:43:56 19° S 02:47:26 60° WSW 02:52:22 10° NNW
USA 229 DEB 3.6 02:48:34 23° SW 02:52:55 88° SE 02:59:48 10° NE
USA 229 3.6 02:48:40 23° SSW 02:53:00 88° SE 02:59:52 10° NE
Cosmos 2098 Rocket 3.9 02:50:20 10° NNW 02:55:01 48° W 02:59:34 16° SSW
NOSS 3 (A) 4.2 02:55:49 45° SW 02:56:29 75° NW 02:59:21 10° NE
NOSS 2-3 (C) 3.7 03:01:08 21° SSW 03:03:52 73° SE 03:08:46 10° NE
ERBS 3.0 03:01:08 10° WNW 03:04:03 29° SW 03:06:57 10° SSE
NOSS 3-1 (A) 3.3 03:00:07 19° SSW 03:04:04 78° SE 03:10:21 10° NE
SJ 16-02 2.8 03:02:10 18° W 03:04:05 23° WNW 03:07:39 10° N
Meteor 2-14 Rocket 4.4 02:58:47 10° N 03:04:52 83° W 03:10:56 10° S
CSL-04 DEB 4.2 03:05:04 10° S 03:08:58 78° WSW 03:12:55 10° NNW
Cosmos 1455 Rocket 4.3 03:11:32 19° WSW 03:13:32 26° WNW 03:17:17 10° NNW
MSX 3.9 03:08:09 10° NNE 03:13:56 83° ESE 03:19:43 10° SSW
Cosmos 1943 3.4 03:08:39 10° NNW 03:14:17 75° ENE 03:19:54 10° SSE
Cosmos 1626 Rocket 3.7 03:11:06 10° NNW 03:15:19 52° W 03:19:29 10° S
Cosmos 1758 4.3 03:13:24 20° WSW 03:15:27 31° WNW 03:19:05 10° N
Resurs 1-4 Rocket 4.3 03:16:20 10° NW 03:17:29 11° NW 03:18:38 10° WNW
Spot 4 Rocket 4.2 03:13:24 10° N 03:18:29 58° WNW 03:23:00 13° SSW
Meteor 1-21 Rocket 4.1 03:13:38 10° NNW 03:19:10 69° W 03:24:38 10° S
Cosmos 2227 Rocket 4.1 03:15:46 10° W 03:19:26 17° NW 03:23:08 10° N
SeaSat 1 2.6 03:17:40 10° NNE 03:22:38 77° ESE 03:27:34 10° SSW
Landsat 5 3.2 03:19:51 10° S 03:23:42 73° WSW 03:27:43 10° NNW
CZ-2C R/B 2.8 03:22:46 10° N 03:26:38 60° WNW 03:30:09 11° SSW
Cosmos 1461 4.3 03:23:26 14° W 03:26:38 30° NW 03:30:39 10° NNE
CZ-2D R/B 4.1 03:24:25 10° N 03:28:09 36° WNW 03:31:10 14° SW
Cosmos 2227 4.3 03:24:45 13° SW 03:29:58 68° WNW 03:35:44 10° NNE
FALCON 9 DEB 3.0 03:27:41 10° WNW 03:31:09 73° SW 03:34:36 10° SE
USA 215 4.1 03:25:42 10° NE 03:31:48 43° NNW 03:37:53 10° W
ATLAS CENTAUR R/B 3.2 03:28:15 10° S 03:31:48 27° ESE 03:35:12 10° ENE
Cosmos 1340 Rocket 4.3 03:29:56 14° WSW 03:32:10 21° WNW 03:35:13 10° NNW
ATLAS 3B CENTAUR R/B 4.1 03:27:04 12° WSW 03:33:14 21° SSW 03:37:34 10° SSE
Cosmos 1758 Rocket 3.5 03:28:59 10° N 03:33:19 89° E 03:37:38 10° S
ERS-2 2.1 03:31:25 10° S 03:34:59 57° WSW 03:38:36 10° NNW
Cosmos 2228 3.4 03:31:56 10° S 03:36:15 67° E 03:40:37 10° NNE
Cosmos 724 4.4 03:31:13 10° NW 03:37:08 59° WSW 03:43:07 10° SSE
Cosmos 1953 3.1 03:35:03 12° SW 03:38:22 34° WNW 03:42:05 10° N
SL-4 R/B 2.4 03:36:50 10° WNW 03:39:49 28° SW 03:42:48 10° SSE
Cosmos 1726 3.3 03:38:38 12° SW 03:41:20 25° WNW 03:44:28 10° NNW
Cosmos 1908 3.3 03:39:33 10° SSW 03:43:25 64° W 03:47:20 10° N
Meteor 1-16 Rocket 4.2 03:39:19 10° SSW 03:44:34 59° WNW 03:50:01 10° N
Cosmos 2285 Rocket 4.0 03:40:05 10° SSW 03:46:23 85° WNW 03:52:44 10° NNE
H-2A R/B 2.6 03:45:42 10° SSW 03:49:27 33° W 03:53:12 10° NNW
SL-16 R/B 3.9 03:48:23 10° WNW 03:50:42 13° W 03:53:02 10° WSW
Cosmos 2150 Rocket 4.0 03:46:06 10° SSW 03:51:15 74° WNW 03:56:29 10° NNE
ARIANE 5 R/B 4.0 03:49:46 10° NNW 03:53:40 22° WNW 03:57:35 10° WSW
Cosmos 1825 Rocket 3.5 03:51:35 10° NNW 03:55:54 66° W 04:00:09 10° S
IDEFIX/ARIANE 42P 3.6 03:52:49 10° N 03:57:15 29° WNW 04:01:41 10° SW
CZ-4C R/B 4.2 03:56:29 10° SW 03:58:54 20° W 04:01:24 10° NW
Cosmos 1328 4.1 03:56:25 10° NNW 04:00:16 48° W 04:04:07 10° SSW
ADEOS 3.9 03:55:18 10° NNE 04:00:33 73° ESE 04:05:45 10° S
